| time (UTC) | temp F | wind direction | speed MPH | gust MPH | rain 1hr in | rain 24hr in | rain mn in | humidity % | barometer mb |
| 20260905180848 | 92 | 267 | 5.0 | 8.0 | 0.00 | 0.00 | 0.00 | 54 | 1012.8 |
| 20260905180343 | 92 | 210 | 4.0 | 7.0 | 0.00 | 0.00 | 0.00 | 57 | 1012.9 |
| 20260905175838 | 91 | 262 | 5.0 | 6.0 | 0.00 | 0.00 | 0.00 | 57 | 1013.1 |
| 20260905175338 | 92 | 257 | 5.0 | 9.0 | 0.00 | 0.00 | 0.00 | 59 | 1013.1 |
| 20260905174833 | 92 | 249 | 2.0 | 8.0 | 0.00 | 0.00 | 0.00 | 58 | 1013.2 |
| 20260905174329 | 91 | 163 | 2.0 | 7.0 | 0.00 | 0.00 | 0.00 | 60 | 1013.2 |
| 20260905173824 | 91 | 213 | 3.0 | 5.0 | 0.00 | 0.00 | 0.00 | 61 | 1013.7 |
| 20260905173320 | 91 | 234 | 3.0 | 4.0 | 0.00 | 0.00 | 0.00 | 60 | 1013.8 |
| 20260905172820 | 91 | 264 | 3.0 | 7.0 | 0.00 | 0.00 | 0.00 | 60 | 1013.7 |
| 20260905172318 | 91 | 287 | 4.0 | 6.0 | 0.00 | 0.00 | 0.00 | 59 | 1013.9 |
| 20260905171814 | 91 | 247 | 7.0 | 7.0 | 0.00 | 0.00 | 0.00 | 59 | 1014.0 |
| 20260905171311 | 91 | 257 | 1.0 | 4.0 | 0.00 | 0.00 | 0.00 | 61 | 1014.0 |
| 20260905170807 | 91 | 226 | 2.0 | 9.0 | 0.00 | 0.00 | 0.00 | 57 | 1014.1 |
| 20260905170303 | 92 | 294 | 2.0 | 3.0 | 0.00 | 0.00 | 0.00 | 60 | 1014.1 |
| 20260905165801 | 91 | 265 | 6.0 | 8.0 | 0.00 | 0.00 | 0.00 | 62 | 1014.2 |
| 20260905165257 | 91 | 198 | 2.0 | 6.0 | 0.00 | 0.00 | 0.00 | 62 | 1014.3 |
| 20260905164752 | 91 | 251 | 4.0 | 6.0 | 0.00 | 0.00 | 0.00 | 62 | 1014.4 |
| 20260905164252 | 91 | 277 | 3.0 | 6.0 | 0.00 | 0.00 | 0.00 | 61 | 1014.7 |
| 20260905163748 | 91 | 295 | 1.0 | 5.0 | 0.00 | 0.00 | 0.00 | 61 | 1014.6 |
| 20260905163244 | 90 | 198 | 3.0 | 7.0 | 0.00 | 0.00 | 0.00 | 62 | 1014.5 |
| 20260905162740 | 91 | 295 | 2.0 | 7.0 | 0.00 | 0.00 | 0.00 | 61 | 1014.8 |
| 20260905162239 | 90 | 313 | 0.0 | 3.0 | 0.00 | 0.00 | 0.00 | 63 | 1014.9 |
| 20260905161734 | 90 | 229 | 3.0 | 5.0 | 0.00 | 0.00 | 0.00 | 64 | 1014.9 |
| 20260905161233 | 89 | 265 | 5.0 | 6.0 | 0.00 | 0.00 | 0.00 | 63 | 1015.1 |
| 20260905160732 | 89 | 267 | 2.0 | 4.0 | 0.00 | 0.00 | 0.00 | 66 | 1014.7 |
| 20260905160231 | 89 | 249 | 3.0 | 3.0 | 0.00 | 0.00 | 0.00 | 63 | 1015.1 |
| 20260905155726 | 90 | 314 | 0.0 | 2.0 | 0.00 | 0.00 | 0.00 | 67 | 1014.9 |
| 20260905155225 | 89 | 244 | 2.0 | 4.0 | 0.00 | 0.00 | 0.00 | 65 | 1014.9 |
| 20260905154719 | 88 | 297 | 2.0 | 4.0 | 0.00 | 0.00 | 0.00 | 66 | 1015.0 |
| 20260905154215 | 88 | 208 | 5.0 | 7.0 | 0.00 | 0.00 | 0.00 | 65 | 1015.1 |
| 20260905153711 | 88 | 284 | 0.0 | 4.0 | 0.00 | 0.00 | 0.00 | 67 | 1015.1 |
| 20260905153206 | 88 | 307 | 2.0 | 4.0 | 0.00 | 0.00 | 0.00 | 66 | 1015.2 |
| 20260905152701 | 88 | 168 | 2.0 | 3.0 | 0.00 | 0.00 | 0.00 | 65 | 1015.1 |
| 20260905152156 | 88 | 254 | 0.0 | 5.0 | 0.00 | 0.00 | 0.00 | 68 | 1015.4 |
| 20260905151655 | 90 | 261 | 3.0 | 5.0 | 0.00 | 0.00 | 0.00 | 67 | 1015.4 |
| 20260905151151 | 89 | 282 | 2.0 | 5.0 | 0.00 | 0.00 | 0.00 | 68 | 1015.5 |
| 20260905150646 | 89 | 258 | 6.0 | 6.0 | 0.00 | 0.00 | 0.00 | 72 | 1015.1 |
| 20260905150145 | 88 | 305 | 2.0 | 4.0 | 0.00 | 0.00 | 0.00 | 72 | 1015.5 |
| 20260905145643 | 88 | 251 | 1.0 | 5.0 | 0.00 | 0.00 | 0.00 | 73 | 1015.5 |
| 20260905145143 | 88 | 204 | 4.0 | 5.0 | 0.00 | 0.00 | 0.00 | 72 | 1015.4 |
| 20260905144637 | 88 | 258 | 5.0 | 5.0 | 0.00 | 0.00 | 0.00 | 73 | 1015.2 |
| 20260905144136 | 87 | 265 | 2.0 | 6.0 | 0.00 | 0.00 | 0.00 | 74 | 1015.4 |
| 20260905143632 | 86 | 238 | 2.0 | 5.0 | 0.00 | 0.00 | 0.00 | 77 | 1015.2 |
| 20260905143132 | 86 | 265 | 3.0 | 4.0 | 0.00 | 0.00 | 0.00 | 77 | 1015.0 |
| 20260905142630 | 85 | 246 | 2.0 | 3.0 | 0.00 | 0.00 | 0.00 | 79 | 1015.2 |
| 20260905142131 | 84 | 263 | 0.0 | 3.0 | 0.00 | 0.00 | 0.00 | 81 | 1015.3 |
| 20260905141630 | 84 | 288 | 2.0 | 4.0 | 0.00 | 0.00 | 0.00 | 81 | 1015.2 |
| 20260905141127 | 84 | 242 | 0.0 | 3.0 | 0.00 | 0.00 | 0.00 | 83 | 1015.3 |
| 20260905140622 | 84 | 201 | 2.0 | 3.0 | 0.00 | 0.00 | 0.00 | 86 | 1015.2 |
| 20260905140121 | 83 | 314 | 1.0 | 3.0 | 0.00 | 0.00 | 0.00 | 86 | 1015.4 |
| 20260905135616 | 83 | 260 | 1.0 | 3.0 | 0.00 | 0.00 | 0.00 | 88 | 1015.2 |
| 20260905135112 | 82 | 260 | 0.0 | 1.0 | 0.00 | 0.00 | 0.00 | 89 | 1015.1 |
| 20260905134606 | 81 | 201 | 0.0 | 3.0 | 0.00 | 0.00 | 0.00 | 89 | 1015.2 |
| 20260905134105 | 80 | 228 | 0.0 | 2.0 | 0.00 | 0.00 | 0.00 | 90 | 1015.0 |
| 20260905133601 | 80 | 216 | 4.0 | 4.0 | 0.00 | 0.00 | 0.00 | 90 | 1015.1 |
| 20260905133100 | 80 | 235 | 3.0 | 4.0 | 0.00 | 0.00 | 0.00 | 90 | 1015.2 |
| 20260905132600 | 80 | 217 | 3.0 | 4.0 | 0.00 | 0.00 | 0.00 | 90 | 1015.3 |
| 20260905132055 | 80 | 271 | 1.0 | 5.0 | 0.00 | 0.00 | 0.00 | 90 | 1015.1 |
| 20260905131550 | 80 | 272 | 2.0 | 6.0 | 0.00 | 0.00 | 0.00 | 89 | 1015.1 |
| 20260905131046 | 80 | 256 | 3.0 | 4.0 | 0.00 | 0.00 | 0.00 | 90 | 1015.0 |
| 20260905130544 | 80 | 252 | 2.0 | 4.0 | 0.00 | 0.00 | 0.00 | 91 | 1015.1 |
| 20260905130040 | 80 | 220 | 2.0 | 5.0 | 0.00 | 0.00 | 0.00 | 91 | 1015.0 |
| 20260905125539 | 80 | 216 | 2.0 | 2.0 | 0.00 | 0.00 | 0.00 | 92 | 1015.0 |
| 20260905125035 | 79 | 219 | 2.0 | 2.0 | 0.00 | 0.00 | 0.00 | 92 | 1014.9 |
| 20260905124532 | 79 | 248 | 0.0 | 3.0 | 0.00 | 0.00 | 0.00 | 91 | 1015.0 |
| 20260905124027 | 79 | 240 | 3.0 | 4.0 | 0.00 | 0.00 | 0.00 | 91 | 1014.7 |
| 20260905123523 | 79 | 254 | 2.0 | 5.0 | 0.00 | 0.00 | 0.00 | 91 | 1014.7 |
| 20260905123020 | 80 | 219 | 2.0 | 5.0 | 0.00 | 0.00 | 0.00 | 92 | 1014.8 |
| 20260905122519 | 79 | 254 | 1.0 | 3.0 | 0.00 | 0.00 | 0.00 | 93 | 1015.1 |
| 20260905122014 | 79 | 258 | 2.0 | 2.0 | 0.00 | 0.00 | 0.00 | 94 | 1014.8 |
| 20260905121515 | 79 | 242 | 0.0 | 2.0 | 0.00 | 0.00 | 0.00 | 94 | 1015.0 |
| 20260905121009 | 78 | 195 | 0.0 | 2.0 | 0.00 | 0.00 | 0.00 | 95 | 1014.9 |
| 20260905120508 | 78 | 233 | 1.0 | 2.0 | 0.00 | 0.00 | 0.00 | 94 | 1014.8 |
| 20260905120004 | 78 | 241 | 0.0 | 2.0 | 0.00 | 0.00 | 0.00 | 94 | 1014.6 |
| 20260905115503 | 78 | 220 | 1.0 | 2.0 | 0.00 | 0.00 | 0.00 | 95 | 1014.7 |
| 20260905114958 | 78 | 209 | 2.0 | 2.0 | 0.00 | 0.00 | 0.00 | 95 | 1014.7 |
| 20260905114457 | 78 | 274 | 1.0 | 1.0 | 0.00 | 0.00 | 0.00 | 95 | 1014.6 |
| 20260905113956 | 78 | 243 | 2.0 | 2.0 | 0.00 | 0.00 | 0.00 | 95 | 1014.5 |
| 20260905113452 | 78 | 244 | 0.0 | 2.0 | 0.00 | 0.00 | 0.00 | 95 | 1014.5 |
| 20260905112947 | 78 | 207 | 1.0 | 2.0 | 0.00 | 0.00 | 0.00 | 95 | 1014.5 |
| 20260905112442 | 78 | 230 | 0.0 | 2.0 | 0.00 | 0.00 | 0.00 | 96 | 1014.4 |
| 20260905111938 | 78 | 205 | 0.0 | 2.0 | 0.00 | 0.00 | 0.00 | 96 | 1014.3 |
| 20260905111438 | 78 | 235 | 1.0 | 2.0 | 0.00 | 0.00 | 0.00 | 96 | 1014.3 |
| 20260905110932 | 77 | 226 | 0.0 | 2.0 | 0.00 | 0.00 | 0.00 | 97 | 1014.3 |
| 20260905110431 | 77 | 214 | 2.0 | 3.0 | 0.00 | 0.00 | 0.00 | 97 | 1014.4 |
| 20260905105931 | 77 | 231 | 1.0 | 2.0 | 0.00 | 0.00 | 0.00 | 97 | 1014.2 |
| 20260905105426 | 77 | 221 | 1.0 | 2.0 | 0.00 | 0.00 | 0.00 | 97 | 1014.0 |
| 20260905104926 | 77 | 297 | 0.0 | 0.0 | 0.00 | 0.00 | 0.00 | 97 | 1014.0 |
| 20260905104422 | 77 | 249 | 0.0 | 2.0 | 0.00 | 0.00 | 0.00 | 97 | 1014.1 |
| 20260905103922 | 77 | 220 | 0.0 | 2.0 | 0.00 | 0.00 | 0.00 | 97 | 1014.1 |
| 20260905103417 | 77 | 262 | 0.0 | 2.0 | 0.00 | 0.00 | 0.00 | 97 | 1014.0 |
| 20260905102913 | 77 | 232 | 2.0 | 2.0 | 0.00 | 0.00 | 0.00 | 97 | 1014.0 |
| 20260905102409 | 77 | 201 | 1.0 | 2.0 | 0.00 | 0.00 | 0.00 | 97 | 1013.7 |
| 20260905101909 | 77 | 212 | 2.0 | 4.0 | 0.00 | 0.00 | 0.00 | 97 | 1013.8 |
| 20260905101408 | 77 | 224 | 0.0 | 1.0 | 0.00 | 0.00 | 0.00 | 97 | 1014.0 |
| 20260905100903 | 77 | 226 | 1.0 | 2.0 | 0.00 | 0.00 | 0.00 | 97 | 1013.7 |
| 20260905100359 | 77 | 214 | 0.0 | 3.0 | 0.00 | 0.00 | 0.00 | 97 | 1013.8 |
| 20260905095857 | 77 | 198 | 1.0 | 3.0 | 0.00 | 0.00 | 0.00 | 97 | 1013.8 |
| 20260905095353 | 77 | 256 | 1.0 | 3.0 | 0.00 | 0.00 | 0.00 | 97 | 1013.8 |
| 20260905094847 | 77 | 210 | 2.0 | 3.0 | 0.00 | 0.00 | 0.00 | 97 | 1013.9 |
| 20260905094343 | 76 | 288 | 0.0 | 2.0 | 0.00 | 0.00 | 0.00 | 97 | 1014.0 |
| 20260905093841 | 77 | 181 | 0.0 | 1.0 | 0.00 | 0.00 | 0.00 | 97 | 1013.8 |
| 20260905093337 | 77 | 186 | 0.0 | 1.0 | 0.00 | 0.00 | 0.00 | 97 | 1013.9 |
| 20260905092833 | 77 | 75 | 0.0 | 1.0 | 0.00 | 0.00 | 0.00 | 98 | 1014.1 |
| 20260905092333 | 77 | 112 | 0.0 | 1.0 | 0.00 | 0.00 | 0.00 | 98 | 1013.8 |
| 20260905091828 | 76 | 191 | 0.0 | 1.0 | 0.00 | 0.00 | 0.00 | 98 | 1014.1 |
| 20260905091328 | 76 | 322 | 0.0 | 0.0 | 0.00 | 0.00 | 0.00 | 96 | 1014.1 |
| 20260905090826 | 76 | 312 | 0.0 | 1.0 | 0.00 | 0.00 | 0.00 | 96 | 1014.0 |
| 20260905090322 | 76 | 51 | 0.0 | 1.0 | 0.00 | 0.00 | 0.00 | 96 | 1014.3 |
| 20260905085822 | 76 | 44 | 0.0 | 1.0 | 0.00 | 0.00 | 0.00 | 97 | 1014.2 |
| 20260905085316 | 76 | 48 | 0.0 | 1.0 | 0.00 | 0.00 | 0.00 | 96 | 1014.2 |
| 20260905084812 | 76 | 311 | 0.0 | 0.0 | 0.00 | 0.00 | 0.00 | 96 | 1014.1 |
| 20260905084311 | 76 | 308 | 0.0 | 0.0 | 0.00 | 0.00 | 0.00 | 96 | 1014.1 |
| 20260905083806 | 76 | 308 | 0.0 | 0.0 | 0.00 | 0.00 | 0.00 | 96 | 1014.0 |
| 20260905083302 | 76 | 30 | 0.0 | 1.0 | 0.00 | 0.00 | 0.00 | 96 | 1013.8 |
| 20260905082757 | 76 | 14 | 0.0 | 1.0 | 0.00 | 0.00 | 0.00 | 97 | 1014.0 |
| 20260905082253 | 77 | 355 | 0.0 | 0.0 | 0.00 | 0.00 | 0.00 | 97 | 1014.0 |
| 20260905081748 | 77 | 0 | 0.0 | 1.0 | 0.00 | 0.00 | 0.00 | 97 | 1013.8 |
| 20260905081243 | 76 | 338 | 0.0 | 1.0 | 0.00 | 0.00 | 0.00 | 96 | 1014.0 |
| 20260905080743 | 76 | 328 | 0.0 | 0.0 | 0.00 | 0.00 | 0.00 | 96 | 1014.0 |
| 20260905080242 | 76 | 328 | 0.0 | 0.0 | 0.00 | 0.00 | 0.00 | 96 | 1014.0 |
| 20260905075741 | 77 | 328 | 0.0 | 0.0 | 0.00 | 0.00 | 0.00 | 96 | 1013.9 |
| 20260905075241 | 77 | 319 | 0.0 | 1.0 | 0.00 | 0.00 | 0.00 | 96 | 1013.8 |
| 20260905074739 | 77 | 348 | 0.0 | 1.0 | 0.00 | 0.00 | 0.00 | 96 | 1013.9 |
| 20260905074235 | 77 | 2 | 0.0 | 1.0 | 0.00 | 0.00 | 0.00 | 97 | 1013.8 |
| 20260905073731 | 77 | 320 | 0.0 | 1.0 | 0.00 | 0.00 | 0.00 | 96 | 1013.8 |
| 20260905073227 | 77 | 294 | 0.0 | 1.0 | 0.00 | 0.00 | 0.00 | 96 | 1013.9 |
| 20260905072726 | 77 | 315 | 0.0 | 0.0 | 0.00 | 0.00 | 0.00 | 96 | 1013.7 |
| 20260905072221 | 77 | 315 | 0.0 | 0.0 | 0.00 | 0.00 | 0.00 | 96 | 1013.9 |
| 20260905071718 | 77 | 311 | 0.0 | 0.0 | 0.00 | 0.00 | 0.00 | 96 | 1014.0 |
| 20260905071214 | 77 | 11 | 0.0 | 0.0 | 0.00 | 0.00 | 0.00 | 96 | 1014.1 |
| 20260905070708 | 77 | 328 | 1.0 | 1.0 | 0.00 | 0.00 | 0.00 | 96 | 1013.8 |
| 20260905070204 | 76 | 49 | 0.0 | 1.0 | 0.00 | 0.00 | 0.00 | 95 | 1013.9 |
| 20260905065703 | 76 | 131 | 0.0 | 0.0 | 0.00 | 0.00 | 0.00 | 95 | 1013.8 |
| 20260905065157 | 77 | 131 | 0.0 | 1.0 | 0.00 | 0.00 | 0.00 | 95 | 1014.2 |
| 20260905064652 | 77 | 342 | 0.0 | 0.0 | 0.00 | 0.00 | 0.00 | 95 | 1014.2 |
| 20260905064148 | 77 | 344 | 0.0 | 1.0 | 0.00 | 0.00 | 0.00 | 94 | 1014.3 |
| 20260905063646 | 77 | 18 | 0.0 | 0.0 | 0.00 | 0.00 | 0.00 | 94 | 1014.2 |
| 20260905063143 | 77 | 329 | 0.0 | 0.0 | 0.00 | 0.00 | 0.00 | 94 | 1014.5 |
| 20260905062639 | 77 | 21 | 0.0 | 0.0 | 0.00 | 0.00 | 0.00 | 93 | 1014.4 |
| 20260905062138 | 77 | 350 | 0.0 | 1.0 | 0.00 | 0.00 | 0.00 | 94 | 1014.5 |
| 20260905061632 | 77 | 25 | 0.0 | 1.0 | 0.00 | 0.00 | 0.00 | 93 | 1014.4 |
| 20260905061132 | 77 | 337 | 0.0 | 0.0 | 0.00 | 0.00 | 0.00 | 93 | 1014.4 |
| 20260905060628 | 77 | 312 | 0.0 | 1.0 | 0.00 | 0.00 | 0.00 | 93 | 1014.5 |
| 20260905060124 | 78 | 339 | 0.0 | 1.0 | 0.00 | 0.00 | 0.00 | 93 | 1014.5 |
| 20260905055622 | 78 | 19 | 0.0 | 1.0 | 0.00 | 0.00 | 0.00 | 93 | 1014.5 |
| 20260905055118 | 78 | 3 | 1.0 | 1.0 | 0.00 | 0.00 | 0.00 | 92 | 1014.6 |
| 20260905054614 | 78 | 62 | 0.0 | 1.0 | 0.00 | 0.00 | 0.00 | 93 | 1014.6 |
| 20260905054109 | 78 | 28 | 0.0 | 1.0 | 0.00 | 0.00 | 0.00 | 93 | 1014.8 |
| 20260905053608 | 78 | 346 | 0.0 | 1.0 | 0.00 | 0.00 | 0.00 | 93 | 1014.6 |
| 20260905053104 | 78 | 342 | 0.0 | 1.0 | 0.00 | 0.00 | 0.00 | 93 | 1014.9 |
| 20260905052603 | 78 | 304 | 1.0 | 1.0 | 0.00 | 0.00 | 0.00 | 93 | 1014.9 |
| 20260905052058 | 78 | 315 | 0.0 | 0.0 | 0.00 | 0.00 | 0.00 | 93 | 1014.8 |
| 20260905051553 | 78 | 73 | 0.0 | 0.0 | 0.00 | 0.00 | 0.00 | 93 | 1014.9 |
| 20260905051050 | 78 | 245 | 1.0 | 2.0 | 0.00 | 0.00 | 0.00 | 93 | 1015.0 |
| 20260905050546 | 78 | 75 | 1.0 | 1.0 | 0.00 | 0.00 | 0.00 | 92 | 1014.9 |
| 20260905050043 | 78 | 283 | 0.0 | 0.0 | 0.00 | 0.00 | 0.00 | 92 | 1015.1 |
| 20260905045537 | 78 | 256 | 0.0 | 1.0 | 0.00 | 0.00 | 0.00 | 92 | 1015.2 |
| 20260905045032 | 78 | 265 | 2.0 | 2.0 | 0.00 | 0.00 | 0.00 | 93 | 1015.1 |
| 20260905044532 | 78 | 169 | 0.0 | 1.0 | 0.00 | 0.00 | 0.00 | 93 | 1015.2 |
| 20260905044027 | 78 | 140 | 0.0 | 2.0 | 0.00 | 0.00 | 0.00 | 93 | 1015.1 |
| 20260905043526 | 78 | 146 | 1.0 | 2.0 | 0.00 | 0.00 | 0.00 | 93 | 1015.1 |
| 20260905043022 | 78 | 318 | 0.0 | 1.0 | 0.00 | 0.00 | 0.00 | 93 | 1015.3 |
| 20260905042520 | 78 | 135 | 0.0 | 1.0 | 0.00 | 0.00 | 0.00 | 93 | 1015.4 |
| 20260905042016 | 78 | 168 | 0.0 | 0.0 | 0.00 | 0.00 | 0.00 | 93 | 1015.5 |
| 20260905041511 | 78 | 113 | 0.0 | 0.0 | 0.00 | 0.00 | 0.00 | 92 | 1015.4 |
| 20260905041007 | 78 | 308 | 0.0 | 1.0 | 0.00 | 0.00 | 0.00 | 92 | 1015.4 |
| 20260905040506 | 78 | 351 | 0.0 | 1.0 | 0.00 | 0.00 | 0.00 | 92 | 1015.6 |
| 20260905040005 | 78 | 331 | 0.0 | 1.0 | 0.00 | 0.03 | 0.03 | 92 | 1015.5 |
| 20260905035500 | 78 | 28 | 0.0 | 0.0 | 0.00 | 0.03 | 0.03 | 92 | 1015.6 |
| 20260905034957 | 78 | 328 | 0.0 | 2.0 | 0.00 | 0.03 | 0.03 | 91 | 1015.5 |
| 20260905034457 | 78 | 120 | 0.0 | 0.0 | 0.00 | 0.03 | 0.03 | 91 | 1015.4 |
| 20260905033957 | 78 | 309 | 1.0 | 2.0 | 0.00 | 0.03 | 0.03 | 91 | 1015.7 |
| 20260905033457 | 78 | 317 | 0.0 | 1.0 | 0.00 | 0.03 | 0.03 | 91 | 1015.6 |
| 20260905032952 | 78 | 275 | 0.0 | 2.0 | 0.00 | 0.03 | 0.03 | 91 | 1015.6 |
| 20260905032447 | 78 | 174 | 0.0 | 2.0 | 0.00 | 0.03 | 0.03 | 91 | 1015.4 |
| 20260905031942 | 78 | 142 | 2.0 | 3.0 | 0.00 | 0.03 | 0.03 | 91 | 1015.5 |
| 20260905031438 | 78 | 164 | 0.0 | 1.0 | 0.00 | 0.03 | 0.03 | 91 | 1015.4 |
| 20260905030933 | 78 | 134 | 1.0 | 2.0 | 0.00 | 0.03 | 0.03 | 91 | 1015.5 |
| 20260905030428 | 78 | 163 | 2.0 | 3.0 | 0.00 | 0.03 | 0.03 | 91 | 1015.8 |
| 20260905025927 | 78 | 224 | 0.0 | 2.0 | 0.00 | 0.03 | 0.03 | 92 | 1015.6 |
| 20260905025423 | 78 | 134 | 1.0 | 2.0 | 0.00 | 0.03 | 0.03 | 91 | 1015.9 |
| 20260905024920 | 78 | 104 | 2.0 | 3.0 | 0.00 | 0.03 | 0.03 | 91 | 1015.8 |
| 20260905024419 | 78 | 146 | 2.0 | 3.0 | 0.00 | 0.03 | 0.03 | 91 | 1015.8 |
| 20260905023915 | 78 | 163 | 3.0 | 3.0 | 0.00 | 0.03 | 0.03 | 91 | 1016.0 |
| 20260905023410 | 78 | 114 | 1.0 | 2.0 | 0.00 | 0.03 | 0.03 | 92 | 1015.9 |
| 20260905022909 | 78 | 128 | 2.0 | 3.0 | 0.00 | 0.03 | 0.03 | 92 | 1015.6 |
| 20260905022404 | 78 | 157 | 2.0 | 3.0 | 0.00 | 0.03 | 0.03 | 92 | 1015.7 |
| 20260905021859 | 78 | 61 | 0.0 | 2.0 | 0.00 | 0.03 | 0.03 | 92 | 1015.8 |
| 20260905021354 | 78 | 107 | 0.0 | 2.0 | 0.00 | 0.03 | 0.03 | 92 | 1015.7 |
| 20260905020850 | 78 | 135 | 1.0 | 4.0 | 0.00 | 0.03 | 0.03 | 92 | 1015.7 |
| 20260905020349 | 78 | 121 | 1.0 | 1.0 | 0.00 | 0.03 | 0.03 | 92 | 1015.9 |
| 20260905015850 | 78 | 115 | 0.0 | 2.0 | 0.00 | 0.03 | 0.03 | 91 | 1015.6 |
| 20260905015348 | 78 | 136 | 1.0 | 2.0 | 0.00 | 0.03 | 0.03 | 91 | 1015.6 |
| 20260905014848 | 78 | 169 | 0.0 | 3.0 | 0.00 | 0.03 | 0.03 | 91 | 1015.7 |
| 20260905014343 | 79 | 169 | 3.0 | 4.0 | 0.00 | 0.03 | 0.03 | 91 | 1015.7 |
| 20260905013844 | 79 | 97 | 0.0 | 2.0 | 0.00 | 0.03 | 0.03 | 91 | 1015.9 |
| 20260905013340 | 79 | 240 | 0.0 | 2.0 | 0.00 | 0.03 | 0.03 | 91 | 1015.7 |
| 20260905012835 | 79 | 52 | 0.0 | 2.0 | 0.00 | 0.03 | 0.03 | 90 | 1015.8 |
| 20260905012330 | 79 | 251 | 0.0 | 2.0 | 0.00 | 0.03 | 0.03 | 90 | 1015.4 |
| 20260905011827 | 79 | 347 | 3.0 | 3.0 | 0.00 | 0.03 | 0.03 | 90 | 1015.4 |
| 20260905011322 | 79 | 80 | 1.0 | 2.0 | 0.00 | 0.03 | 0.03 | 90 | 1015.4 |
| 20260905010823 | 79 | 64 | 0.0 | 0.0 | 0.00 | 0.03 | 0.03 | 91 | 1015.4 |
| 20260905010318 | 79 | 0 | 0.0 | 1.0 | 0.00 | 0.03 | 0.03 | 90 | 1015.4 |
| 20260905005814 | 79 | 115 | 0.0 | 0.0 | 0.00 | 0.03 | 0.03 | 91 | 1015.2 |
| 20260905005309 | 79 | 331 | 0.0 | 0.0 | 0.00 | 0.03 | 0.03 | 90 | 1015.0 |
| 20260905004804 | 79 | 325 | 0.0 | 2.0 | 0.00 | 0.03 | 0.03 | 90 | 1015.0 |
| 20260905004259 | 79 | 325 | 0.0 | 1.0 | 0.00 | 0.03 | 0.03 | 91 | 1014.9 |
| 20260905003754 | 78 | 238 | 0.0 | 1.0 | 0.00 | 0.03 | 0.03 | 91 | 1014.5 |
| 20260905003250 | 78 | 115 | 0.0 | 2.0 | 0.00 | 0.03 | 0.03 | 91 | 1014.7 |
| 20260905002746 | 78 | 148 | 3.0 | 3.0 | 0.00 | 0.03 | 0.03 | 90 | 1014.9 |
| 20260905002245 | 78 | 103 | 0.0 | 2.0 | 0.00 | 0.03 | 0.03 | 89 | 1014.9 |
| 20260905001740 | 78 | 220 | 0.0 | 1.0 | 0.00 | 0.03 | 0.03 | 89 | 1015.1 |
| 20260905001239 | 78 | 62 | 0.0 | 1.0 | 0.00 | 0.03 | 0.03 | 89 | 1015.2 |
| 20260905000735 | 78 | 124 | 0.0 | 2.0 | 0.00 | 0.03 | 0.03 | 90 | 1015.2 |
| 20260905000233 | 78 | 112 | 0.0 | 1.0 | 0.02 | 0.03 | 0.03 | 88 | 1015.1 |
| 20260904235726 | 78 | 210 | 0.0 | 0.0 | 0.02 | 0.03 | 0.03 | 88 | 1015.1 |
| 20260904235220 | 78 | 9 | 2.0 | 2.0 | 0.00 | 0.03 | 0.03 | 88 | 1015.3 |
| 20260904234714 | 79 | 177 | 1.0 | 2.0 | 0.00 | 0.03 | 0.03 | 88 | 1015.4 |
| 20260904234210 | 79 | 19 | 0.0 | 3.0 | 0.00 | 0.03 | 0.03 | 89 | 1015.5 |
| 20260904233706 | 79 | 98 | 2.0 | 3.0 | 0.00 | 0.03 | 0.03 | 90 | 1015.4 |
| 20260904233202 | 79 | 59 | 0.0 | 1.0 | 0.00 | 0.03 | 0.03 | 90 | 1015.1 |
| 20260904232658 | 79 | 79 | 0.0 | 3.0 | 0.00 | 0.03 | 0.03 | 90 | 1014.9 |
| 20260904232154 | 79 | 134 | 2.0 | 2.0 | 0.00 | 0.03 | 0.03 | 90 | 1015.3 |
| 20260904231650 | 79 | 301 | 1.0 | 2.0 | 0.00 | 0.03 | 0.03 | 89 | 1015.1 |
| 20260904231145 | 80 | 308 | 1.0 | 2.0 | 0.00 | 0.03 | 0.03 | 88 | 1014.9 |
| 20260904230644 | 80 | 127 | 0.0 | 1.0 | 0.00 | 0.03 | 0.03 | 88 | 1015.5 |
| 20260904230140 | 80 | 123 | 2.0 | 3.0 | 0.00 | 0.03 | 0.03 | 89 | 1015.4 |
| 20260904225637 | 80 | 135 | 2.0 | 2.0 | 0.00 | 0.03 | 0.03 | 87 | 1015.2 |
| 20260904225132 | 80 | 37 | 2.0 | 2.0 | 0.00 | 0.03 | 0.03 | 87 | 1015.4 |
| 20260904224627 | 80 | 121 | 0.0 | 2.0 | 0.00 | 0.03 | 0.03 | 88 | 1015.4 |
| 20260904224121 | 80 | 74 | 2.0 | 2.0 | 0.02 | 0.03 | 0.03 | 89 | 1015.5 |
| 20260904223621 | 80 | 167 | 0.0 | 2.0 | 0.02 | 0.03 | 0.03 | 89 | 1015.4 |
| 20260904223116 | 80 | 60 | 0.0 | 2.0 | 0.00 | 0.02 | 0.02 | 89 | 1015.5 |
| 20260904222612 | 80 | 168 | 0.0 | 2.0 | 0.02 | 0.02 | 0.02 | 88 | 1015.3 |
| 20260904222108 | 80 | 127 | 0.0 | 2.0 | 0.02 | 0.02 | 0.02 | 88 | 1015.1 |
| 20260904221608 | 80 | 109 | 1.0 | 2.0 | 0.02 | 0.02 | 0.02 | 88 | 1014.8 |
| 20260904221107 | 80 | 311 | 1.0 | 3.0 | 0.00 | 0.02 | 0.02 | 86 | 1014.9 |
| 20260904220603 | 80 | 283 | 0.0 | 2.0 | 0.00 | 0.02 | 0.02 | 86 | 1014.6 |
| 20260904220058 | 80 | 137 | 0.0 | 2.0 | 0.00 | 0.02 | 0.02 | 87 | 1014.2 |
| 20260904215558 | 80 | 323 | 0.0 | 2.0 | 0.00 | 0.02 | 0.02 | 86 | 1013.8 |
| 20260904215054 | 80 | 315 | 0.0 | 2.0 | 0.00 | 0.02 | 0.02 | 86 | 1013.7 |
| 20260904214549 | 80 | 241 | 2.0 | 2.0 | 0.00 | 0.02 | 0.02 | 83 | 1013.9 |
| 20260904214044 | 80 | 65 | 0.0 | 2.0 | 0.02 | 0.02 | 0.02 | 86 | 1014.1 |
| 20260904213542 | 81 | 95 | 2.0 | 2.0 | 0.02 | 0.02 | 0.02 | 85 | 1014.1 |
| 20260904213039 | 81 | 337 | 1.0 | 3.0 | 0.00 | 0.01 | 0.01 | 84 | 1013.9 |
| 20260904212538 | 80 | 252 | 2.0 | 5.0 | 0.02 | 0.01 | 0.01 | 83 | 1013.5 |
| 20260904212034 | 80 | 259 | 2.0 | 4.0 | 0.02 | 0.01 | 0.01 | 82 | 1013.4 |
| 20260904211533 | 81 | 260 | 4.0 | 6.0 | 0.02 | 0.01 | 0.01 | 81 | 1013.7 |
| 20260904211029 | 81 | 255 | 3.0 | 6.0 | 0.02 | 0.01 | 0.01 | 82 | 1013.9 |
| 20260904210528 | 81 | 213 | 6.0 | 6.0 | 0.02 | 0.00 | 0.00 | 82 | 1013.9 |
| 20260904210025 | 82 | 293 | 3.0 | 6.0 | 0.02 | 0.00 | 0.00 | 81 | 1013.8 |
| 20260904205520 | 83 | 311 | 5.0 | 7.0 | 0.00 | 0.00 | 0.00 | 76 | 1013.8 |
| 20260904205016 | 83 | 262 | 6.0 | 11.0 | 0.00 | 0.00 | 0.00 | 72 | 1014.0 |
| 20260904204512 | 83 | 266 | 10.0 | 10.0 | 0.00 | 0.00 | 0.00 | 68 | 1014.1 |
| 20260904204008 | 86 | 265 | 4.0 | 16.0 | 0.00 | 0.00 | 0.00 | 62 | 1014.1 |
| 20260904203504 | 89 | 272 | 6.0 | 7.0 | 0.00 | 0.00 | 0.00 | 61 | 1014.0 |
| 20260904203000 | 91 | 221 | 10.0 | 11.0 | 0.00 | 0.00 | 0.00 | 59 | 1013.6 |
| 20260904202455 | 92 | 125 | 6.0 | 7.0 | 0.00 | 0.00 | 0.00 | 58 | 1013.4 |
| 20260904201951 | 93 | 194 | 3.0 | 6.0 | 0.00 | 0.00 | 0.00 | 61 | 1013.2 |
| 20260904201452 | 93 | 177 | 3.0 | 4.0 | 0.00 | 0.00 | 0.00 | 59 | 1013.4 |
| 20260904200948 | 93 | 206 | 5.0 | 7.0 | 0.00 | 0.00 | 0.00 | 57 | 1013.6 |
| 20260904200446 | 93 | 159 | 2.0 | 5.0 | 0.00 | 0.00 | 0.00 | 58 | 1013.6 |
| 20260904195941 | 93 | 203 | 3.0 | 5.0 | 0.00 | 0.00 | 0.00 | 58 | 1013.5 |
| 20260904195439 | 93 | 109 | 3.0 | 6.0 | 0.00 | 0.00 | 0.00 | 57 | 1013.7 |
| 20260904194939 | 93 | 205 | 3.0 | 5.0 | 0.00 | 0.00 | 0.00 | 57 | 1013.7 |
| 20260904194439 | 93 | 154 | 3.0 | 5.0 | 0.00 | 0.00 | 0.00 | 57 | 1013.9 |
| 20260904193934 | 93 | 156 | 3.0 | 4.0 | 0.00 | 0.00 | 0.00 | 56 | 1013.7 |
| 20260904193429 | 93 | 172 | 3.0 | 4.0 | 0.00 | 0.00 | 0.00 | 60 | 1014.0 |
| 20260904192925 | 93 | 180 | 3.0 | 9.0 | 0.00 | 0.00 | 0.00 | 56 | 1013.8 |
| 20260904192420 | 93 | 159 | 4.0 | 4.0 | 0.00 | 0.00 | 0.00 | 58 | 1014.1 |
| 20260904191916 | 93 | 155 | 3.0 | 5.0 | 0.00 | 0.00 | 0.00 | 57 | 1014.2 |
| 20260904191412 | 93 | 214 | 6.0 | 7.0 | 0.00 | 0.00 | 0.00 | 57 | 1014.3 |
| 20260904190909 | 93 | 159 | 4.0 | 6.0 | 0.00 | 0.00 | 0.00 | 57 | 1014.3 |
| 20260904190404 | 93 | 162 | 3.0 | 7.0 | 0.00 | 0.00 | 0.00 | 57 | 1014.3 |
| 20260904185900 | 93 | 167 | 4.0 | 6.0 | 0.00 | 0.00 | 0.00 | 58 | 1014.5 |
| 20260904185356 | 93 | 127 | 4.0 | 7.0 | 0.00 | 0.00 | 0.00 | 56 | 1014.4 |
| 20260904184855 | 93 | 169 | 3.0 | 6.0 | 0.00 | 0.00 | 0.00 | 57 | 1014.6 |
| 20260904184350 | 94 | 130 | 7.0 | 9.0 | 0.00 | 0.00 | 0.00 | 55 | 1014.7 |
| 20260904183845 | 93 | 187 | 5.0 | 5.0 | 0.00 | 0.00 | 0.00 | 58 | 1014.7 |
| 20260904183341 | 93 | 162 | 4.0 | 6.0 | 0.00 | 0.00 | 0.00 | 58 | 1014.9 |
| 20260904182836 | 93 | 114 | 2.0 | 6.0 | 0.00 | 0.00 | 0.00 | 56 | 1015.1 |
| 20260904182337 | 93 | 124 | 4.0 | 6.0 | 0.00 | 0.00 | 0.00 | 58 | 1015.2 |
| 20260904181832 | 93 | 198 | 2.0 | 10.0 | 0.00 | 0.00 | 0.00 | 58 | 1015.0 |
| 20260904181332 | 92 | 135 | 2.0 | 9.0 | 0.00 | 0.00 | 0.00 | 60 | 1015.3 |